Main page
METAR-TAF:

METAR-TAF

Airports :

Defence School of Transport

Leconfield, England

latitude: 53-52-37N, longitude: 0-26-15W, elevation: 7 m

Current weather observation

The report was made 30 minutes ago, at 10:50 UTC
Wind 15 kt from the South/Southwest
Temperature 17°C
Humidity 68%
Pressure 993 hPa
Visibility 10 km or more

METAR: EGXV 091050Z AUTO 21015KT 9999 SCT026/// 17/11 Q0993

Time: 12:20 (11:20 UTC)


TAF: missing

Weather observations and forecasts of more than 4000 airports (METAR and TAF reports).

The available stations are represented by yellow and red dots on the map.

Hover mouse over dot to see the name of the station.

Then click to see weather observations and forecasts.

To change the map : click on the green buttons with a black cross to zoom in, on the green button with a dash to zoom out, or on the green arrows for adjacent maps.


METAR-TAF: